Weather History for The Dalles, OR

Change the Weather History Date:

Saturday, April 28, 2012

  Actual Average Record
Temperature  
Mean Temperature 16 °C -  
Max Temperature 21 °C 19 °C 32 °C (1968)
Min Temperature 11 °C 7 °C 0 °C (1967)
Degree Days  
Heating Degree Days 6    
Growing Degree Days 10 (Base 50)    
Moisture  
Dew Point 6 °C    
Average Humidity 56    
Maximum Humidity 68    
Minimum Humidity 42    
Precipitation  
Precipitation 0.00 mm - - ()
Sea Level Pressure  
Sea Level Pressure 1023 hPa    
Wind  
Wind Speed 11 km/h (WNW)    
Max Wind Speed 26 km/h    
Max Gust Speed 37 km/h    
Visibility 16 kilometers    
Events      
Averages and records for this station are not official NWS values.
T = Trace of Precipitation, MM = Missing Value Source: NWS Daily Summary

Daily Weather History Graph

Daily Weather History Graph

Search for Another Location

Airport:

Trip Planner

Search our weather history database for the weather conditions in past years. The results will help you decide how hot, cold, wet, or windy it might be!

Date:

Astronomy

Apr. 28, 2012 Rise Set
Actual Time 5:56 AM PDT 8:08 PM PDT
Civil Twilight 5:23 AM PDT 8:41 PM PDT
Nautical Twilight 4:43 AM PDT 9:21 PM PDT
Astronomical Twilight 3:58 AM PDT 10:07 PM PDT
Moon 11:40 AM PDT (4/28) 1:38 AM PDT (4/28)
Length of Visible Light 15h 17m
Length of Day
14h 12m
Waxing Crescent, 44% of the Moon is Illuminated
Apr 28
Waxing Crescent
Apr 29
First Quarter
May 5
Full
May 12
Last Quarter
May 20
New

Hourly Weather History & Observations

Time (PDT) Temp. Dew Point Humidity Pressure Visibility Wind Dir Wind Speed Gust Speed Precip Events Conditions
12:53 AM 11.1 °C 4.4 °C 63% 1024.9 hPa 16.1 km Variable 9.3 km/h / 2.6 m/s - N/A   Mostly Cloudy
1:53 AM 11.1 °C 4.4 °C 63% 1024.8 hPa 16.1 km Calm Calm - N/A   Overcast
3:53 AM 10.6 °C 5.0 °C 68% 1024.9 hPa 16.1 km WSW 7.4 km/h / 2.1 m/s - N/A   Overcast
4:53 AM 10.6 °C 5.0 °C 68% 1024.8 hPa 16.1 km WSW 7.4 km/h / 2.1 m/s - N/A   Overcast
5:53 AM 10.6 °C 4.4 °C 66% 1024.8 hPa 16.1 km WSW 7.4 km/h / 2.1 m/s - N/A   Overcast
6:53 AM 10.6 °C 4.4 °C 66% 1024.8 hPa 16.1 km West 11.1 km/h / 3.1 m/s - N/A   Overcast
7:53 AM 12.2 °C 5.0 °C 62% 1024.9 hPa 16.1 km WNW 9.3 km/h / 2.6 m/s - N/A   Mostly Cloudy
8:53 AM 12.8 °C 5.6 °C 62% 1024.8 hPa 16.1 km Calm Calm - N/A   Scattered Clouds
9:53 AM 13.3 °C 5.6 °C 60% 1024.4 hPa 16.1 km SW 7.4 km/h / 2.1 m/s - N/A   Clear
10:53 AM 15.6 °C 5.6 °C 51% 1024.0 hPa 16.1 km Calm Calm - N/A   Mostly Cloudy
11:53 AM 17.2 °C 6.1 °C 48% 1023.5 hPa 16.1 km NNW 16.7 km/h / 4.6 m/s - N/A   Mostly Cloudy
12:53 PM 18.3 °C 6.1 °C 45% 1022.8 hPa 16.1 km NW 22.2 km/h / 6.2 m/s 29.6 km/h / 8.2 m/s N/A   Clear
1:53 PM 19.4 °C 6.1 °C 42% 1021.9 hPa 16.1 km NNW 24.1 km/h / 6.7 m/s - N/A   Clear
2:53 PM 20.0 °C 6.7 °C 42% 1021.1 hPa 16.1 km NNW 22.2 km/h / 6.2 m/s - N/A   Clear
3:53 PM 20.0 °C 7.2 °C 43% 1020.5 hPa 16.1 km NW 25.9 km/h / 7.2 m/s 37.0 km/h / 10.3 m/s N/A   Clear
4:53 PM 19.4 °C 6.7 °C 44% 1020.2 hPa 16.1 km NW 24.1 km/h / 6.7 m/s 35.2 km/h / 9.8 m/s N/A   Clear
5:53 PM 18.9 °C 6.7 °C 45% 1020.2 hPa 16.1 km WNW 24.1 km/h / 6.7 m/s 33.3 km/h / 9.3 m/s N/A   Clear
6:53 PM 17.8 °C 6.7 °C 48% 1020.0 hPa 16.1 km WNW 22.2 km/h / 6.2 m/s - N/A   Clear
7:53 PM 15.6 °C 6.7 °C 55% 1020.2 hPa 16.1 km NW 16.7 km/h / 4.6 m/s - N/A   Clear
8:53 PM 14.4 °C 6.7 °C 60% 1020.5 hPa 16.1 km NW 13.0 km/h / 3.6 m/s - N/A   Clear
9:53 PM 13.9 °C 6.7 °C 62% 1020.7 hPa 16.1 km NW 14.8 km/h / 4.1 m/s - N/A   Clear
10:53 PM 13.3 °C 6.7 °C 64% 1020.7 hPa 16.1 km WNW 14.8 km/h / 4.1 m/s - N/A   Clear
11:53 PM 12.8 °C 6.7 °C 67% 1020.5 hPa 16.1 km NNW 18.5 km/h / 5.1 m/s - N/A   Clear